Home > Weather > Salem > Past weeks

Flag for U.S.A. Weather for the Past 2 Weeks in Salem, Oregon, U.S.A.

Now
58 °F

Overcast.


Feels Like: 58 °F
Forecast: 50 / 58 °F
Wind: No wind

Location: McNary Field

Current Time: Feb 10, 2016 at 7:03:56 PM

Latest Report: Feb 10, 2016 at 5:56 PM


Visibility: 10 mi

Pressure: 30.27 "Hg

Humidity: 72%

Dew point: 49 °F

Location of SalemLocation

Historic Weather in Salem — Graph

°F

Salem Temperature Yesterday

Maximum temperature yesterday: 61 °F (at 1:56 PM)
Minimum temperature yesterday: 35 °F (at 7:56 AM)
Average temperature yesterday: 47 °F

High & Low Weather Summary for the Past Weeks

 TemperatureHumidityPressure
High64 °F (Feb 8, 2:56 PM)97% (Jan 27, 7:56 AM)30.53 "Hg (Jan 27, 7:56 AM)
Low34 °F (Jan 31, 5:56 AM)42% (Feb 5, 2:56 PM)29.61 "Hg (Jan 29, 6:56 AM)
Average47 °F80%30.20 "Hg
* Reported Jan 26 4:56 PM — Feb 10 4:56 PM, Salem, Weather by CustomWeather, © 2016

Note: Actual official high and low records may vary slightly from our data, if they occured in-between our weather recording intervals... More about our weather records

Advertising

Salem Weather History for the Previous 24 Hours

 ConditionsComfort  
Time TempWeatherWind HumidityBarometerVisibility
4:56 PM
Wed, Feb 10
60 °FPassing clouds.6 mph65%30.27 "Hg10 mi
3:56 PM61 °FPassing clouds.6 mph65%30.27 "Hg10 mi
2:56 PM62 °FMostly cloudy.10 mph60%30.26 "Hg10 mi
1:56 PM62 °FMostly cloudy.10 mph62%30.27 "Hg10 mi
12:56 PM60 °FOvercast.13 mph65%30.27 "Hg10 mi
11:56 AM56 °FPassing clouds.13 mph70%30.28 "Hg10 mi
10:56 AM54 °FPartly sunny.7 mph69%30.27 "Hg10 mi
9:56 AM52 °FBroken clouds.10 mph75%30.25 "Hg10 mi
8:56 AM50 °FMostly cloudy.8 mph80%30.24 "Hg10 mi
7:56 AM44 °FScattered clouds.6 mph89%30.20 "Hg7 mi
6:56 AM40 °FFog.No wind97%30.20 "Hg6 mi
5:56 AM40 °FFog.No wind97%30.16 "Hg5 mi
4:56 AM43 °FPassing clouds.6 mph89%30.15 "Hg9 mi
3:56 AM42 °FClear.6 mph89%30.14 "Hg10 mi
2:56 AM43 °FClear.No wind89%30.14 "Hg10 mi
1:56 AM41 °FClear.6 mph89%30.13 "Hg10 mi
12:56 AM42 °FClear.5 mph89%30.14 "Hg10 mi
11:56 PM
Tue, Feb 9
42 °FClear.No wind89%30.14 "Hg10 mi
10:56 PM42 °FClear.No wind85%30.12 "Hg10 mi
9:56 PM44 °FClear.No wind85%30.12 "Hg10 mi
8:56 PM44 °FClear.No wind85%30.13 "Hg10 mi
7:56 PM45 °FClear.No wind86%30.14 "Hg10 mi
Weather by CustomWeather, © 2016

See weather overviewHow to use our weather pages